ECMWFFLT1_700_spd_216.txt.gz
Wind_Speed
28 30 33 35 36 33 30 32 35 35 34 36 37 36 38 43 42 37 34 33 35 36 36 35 33 33 32 31 30 29 26 24 21 20 20 21 19 17 16 15 14 14 12 11 12 12 12 11 10 11 10 9 6 5 5 5 6 7 8 9 10 12 12
27 30 33 35 37 35 32 33 35 35 35 36 38 38 39 41 43 42 38 36 36 37 37 36 35 34 33 32 32 30 28 24 22 21 21 21 20 17 16 15 14 13 11 10 11 12 12 12 10 11 10 9 7 6 6 5 6 7 7 8 10 11 12
28 31 34 37 38 37 34 35 36 36 36 36 38 40 41 41 43 44 41 38 38 38 37 37 37 35 34 33 32 31 28 26 24 23 22 21 20 17 16 15 13 12 11 10 11 11 12 12 10 11 11 8 7 6 6 6 6 6 7 7 9 11 11
30 31 33 37 39 38 36 36 37 37 36 35 37 41 41 40 43 44 40 39 40 39 38 38 38 37 35 34 33 31 29 27 25 24 23 22 20 17 15 14 13 13 12 11 11 12 12 11 9 11 11 9 7 7 7 7 6 6 6 6 8 10 11
33 33 33 34 37 38 36 36 37 38 37 36 37 41 44 43 44 45 41 39 41 40 38 38 38 38 37 37 35 32 30 28 26 24 23 21 19 16 15 14 13 13 12 11 12 11 11 11 10 10 11 9 8 7 7 7 6 6 6 6 7 9 10
36 36 34 33 35 37 36 36 37 39 39 39 38 40 46 48 47 47 42 39 39 39 38 38 39 39 39 39 37 33 31 29 26 25 23 21 19 17 15 15 14 13 12 12 12 11 9 10 10 11 12 10 9 7 6 7 7 6 6 6 7 9 9
38 38 36 34 34 36 37 37 38 39 39 40 40 39 44 48 49 46 42 38 38 38 38 38 39 40 40 40 38 35 32 29 27 26 24 21 20 18 16 15 14 13 12 13 13 10 9 9 9 11 12 11 9 7 6 7 7 6 6 6 7 8 9
39 38 36 33 32 35 37 38 38 39 41 43 43 42 42 45 46 45 42 41 40 37 37 39 40 41 41 41 40 38 35 31 28 26 24 22 21 19 18 16 14 13 12 13 12 10 9 9 10 11 12 11 10 8 6 7 7 7 6 6 7 8 8
38 38 35 33 32 34 36 38 37 38 40 43 42 41 41 40 41 42 41 42 41 38 38 40 41 42 43 42 41 40 37 33 30 27 24 23 21 20 19 17 15 13 12 12 11 9 9 9 10 11 11 11 11 9 7 6 6 7 7 6 6 7 6
38 37 35 33 32 33 35 38 37 36 38 40 40 40 41 41 40 39 39 42 41 38 39 42 42 43 43 43 43 41 38 35 31 28 25 24 22 21 20 18 15 13 12 11 9 8 8 9 10 11 10 11 11 10 8 6 6 8 7 7 6 6 5
39 37 35 32 32 33 36 38 37 36 37 39 40 41 42 44 44 42 41 41 40 38 40 43 43 43 44 44 43 42 40 37 33 29 26 24 23 21 20 18 15 14 13 11 9 8 8 9 9 10 10 11 11 10 9 7 7 8 8 7 7 6 5
41 40 37 33 33 34 37 38 38 37 36 37 40 43 44 45 48 49 44 38 36 38 41 43 43 43 44 44 44 43 41 38 35 30 27 25 23 22 21 19 17 15 14 12 10 9 8 8 8 9 10 10 10 10 10 9 8 8 9 9 8 7 6
42 40 36 33 34 35 37 39 39 38 36 36 40 44 45 44 47 51 49 38 32 35 40 42 43 43 44 44 45 44 42 39 36 32 29 27 25 24 23 21 18 17 15 14 12 10 9 8 8 8 8 9 10 10 10 10 9 9 11 10 9 9 8
38 35 32 32 34 34 36 39 40 39 38 37 40 44 46 45 45 50 53 47 36 33 37 41 41 41 43 44 45 46 43 39 36 34 32 29 27 25 24 23 21 19 18 16 14 12 10 8 7 7 7 8 10 11 11 11 11 10 11 12 12 11 10
32 31 29 30 32 31 32 37 39 39 39 38 39 44 46 47 47 50 56 56 47 38 37 39 40 40 41 43 46 46 42 38 36 34 32 30 28 27 26 25 23 21 20 18 16 14 11 9 8 7 7 8 9 10 12 13 13 12 13 13 14 14 13
31 30 29 29 29 28 28 33 38 40 39 38 40 44 46 48 50 52 56 58 54 47 42 40 39 39 39 42 45 46 42 39 37 35 32 31 29 27 28 27 25 23 21 19 16 13 11 10 9 8 8 8 9 10 12 13 14 14 14 14 15 15 15
34 32 30 29 29 28 27 29 36 40 39 38 40 44 47 49 51 54 56 56 56 54 48 42 38 37 38 40 44 46 43 39 38 36 33 32 30 28 29 28 26 25 23 20 17 14 12 12 11 10 10 10 11 12 13 14 15 15 16 16 16 17 18
37 34 32 31 30 28 27 27 33 40 39 38 39 43 46 48 50 54 56 56 56 57 53 47 41 37 36 37 41 46 45 40 38 36 34 32 31 30 30 31 29 27 25 22 19 16 15 15 14 14 13 12 12 14 15 16 16 16 17 17 18 19 19
38 35 34 33 31 28 26 26 32 39 40 38 39 42 45 47 48 51 53 54 57 59 59 55 49 43 38 35 35 42 45 42 39 38 36 35 34 32 31 32 32 31 28 24 22 19 18 18 18 17 16 14 14 15 17 18 18 17 18 19 19 20 20
39 37 35 35 32 28 26 26 30 37 41 39 39 40 43 46 47 48 50 52 55 59 62 61 56 51 45 39 34 36 41 42 41 40 39 39 38 36 34 34 35 33 30 27 24 23 21 21 20 19 19 17 16 16 17 19 19 19 19 20 21 21 21
41 38 37 35 32 28 26 26 29 35 40 41 40 39 40 43 46 47 49 52 55 57 61 64 62 57 51 45 39 36 38 41 42 41 40 41 42 39 36 36 36 34 32 30 27 26 25 24 24 22 21 21 20 19 19 19 20 20 20 20 21 22 22
41 39 38 36 32 29 26 25 28 33 38 42 42 40 39 39 43 47 49 51 53 53 57 63 64 59 55 51 46 42 39 39 42 42 41 41 42 41 38 38 38 36 35 33 31 29 28 28 27 26 24 23 23 22 21 21 20 20 21 21 22 23 23
42 41 40 35 31 28 25 23 26 31 36 41 44 43 40 39 40 43 46 49 50 48 51 58 60 57 55 53 52 50 48 44 42 43 44 43 43 42 40 39 39 38 37 36 34 32 31 31 31 29 27 25 24 23 23 23 23 22 22 22 23 23 24
44 42 40 35 29 27 25 22 23 27 33 39 43 44 43 42 42 40 41 45 47 46 46 51 56 58 59 57 54 53 53 51 47 45 45 45 45 43 41 40 41 41 40 38 35 33 33 33 33 31 29 27 26 25 24 24 24 25 24 24 24 24 25
44 43 41 36 30 25 23 22 22 24 29 35 40 43 44 45 44 41 38 39 43 45 44 44 48 56 62 64 60 54 52 53 51 48 45 45 44 43 42 41 42 43 42 39 37 35 35 34 34 33 31 29 28 26 26 25 25 25 25 25 26 26 26
44 44 41 36 32 27 24 23 23 24 27 31 35 40 42 43 43 42 39 36 38 42 43 41 42 47 55 62 62 58 54 53 52 49 46 44 44 44 42 42 44 45 43 42 40 38 36 36 35 35 33 31 30 28 27 26 26 25 25 26 27 27 27
44 43 40 37 34 31 27 25 24 25 27 29 33 36 37 38 42 43 41 37 35 37 40 43 42 43 47 54 59 59 55 53 52 50 47 44 44 43 42 43 44 45 44 44 43 40 38 37 36 36 35 34 32 30 28 28 28 27 26 25 26 26 26
42 42 41 38 36 35 32 29 28 29 30 31 33 35 34 35 40 44 42 39 37 35 37 41 44 44 44 47 53 58 57 54 53 53 49 46 44 43 43 44 44 45 45 45 44 41 39 38 38 38 38 37 35 32 30 29 29 28 27 26 25 25 25
39 41 42 40 39 38 36 34 33 34 34 34 34 35 34 34 38 43 44 42 39 36 35 38 42 44 45 44 48 56 58 56 54 54 52 48 44 43 44 44 44 45 45 45 44 42 40 40 40 41 40 39 36 33 31 29 29 29 28 27 26 26 27
37 40 42 42 40 40 39 39 38 37 36 36 36 36 35 34 37 42 44 44 42 38 35 36 38 41 44 45 46 51 56 56 54 53 52 49 46 45 45 44 43 44 45 45 45 43 42 41 42 42 41 38 36 34 33 31 31 30 29 28 27 27 29
34 37 40 41 41 42 42 42 40 39 38 38 38 37 36 34 36 41 44 45 44 41 37 35 37 39 41 44 46 49 53 55 54 52 51 49 47 46 46 45 44 44 44 45 45 44 43 42 43 43 41 39 38 37 34 33 33 32 30 30 29 29 30
32 34 37 39 41 42 42 41 39 39 39 39 39 38 36 35 36 39 43 46 45 43 40 37 37 38 39 42 45 48 51 54 54 52 51 49 48 47 47 46 45 44 44 43 43 43 43 43 43 42 40 38 38 36 34 35 36 35 34 34 32 32 33
32 34 35 37 38 39 39 40 40 41 41 41 40 38 37 36 36 37 41 46 47 45 42 39 37 37 37 39 43 47 51 54 55 54 53 51 48 47 48 47 46 45 43 42 42 42 43 43 42 40 38 37 36 34 33 37 40 39 39 40 37 35 36
31 33 35 36 38 39 39 41 42 42 42 41 40 39 37 37 37 36 39 44 47 46 43 40 38 37 36 37 41 47 52 55 56 57 56 54 51 48 47 46 45 44 43 43 43 42 42 42 41 40 40 40 40 40 41 42 43 41 42 43 41 38 39
31 34 36 38 39 41 41 42 42 42 41 41 39 38 37 37 38 39 39 42 45 46 44 42 40 37 36 36 38 44 50 53 53 55 57 58 57 55 52 49 47 45 45 44 44 43 43 43 43 44 45 46 47 49 48 47 45 43 44 45 44 42 42
32 35 37 40 42 43 43 43 43 42 41 40 39 38 37 37 38 40 40 41 43 44 44 44 42 39 37 36 37 41 47 50 50 51 55 57 59 59 58 55 52 50 48 47 47 47 48 48 47 47 48 49 51 51 51 49 47 46 46 47 46 44 44
34 37 40 42 44 44 44 43 43 42 41 40 39 38 37 37 38 40 40 40 41 43 44 45 43 39 37 36 37 39 43 47 49 50 52 54 55 56 56 57 56 54 52 51 52 53 52 51 50 50 49 50 52 51 51 52 52 49 48 48 47 46 45

ECMWFFLT1_700_spd_222.txt.gz
Wind_Speed
32 31 30 28 27 26 26 26 25 25 26 26 27 30 32 33 33 33 32 32 32 34 37 35 30 27 24 22 21 20 22 26 29 29 27 25 25 23 21 20 19 18 16 13 11 11 10 10 11 12 12 11 9 8 6 5 4 3 3 3 3 3 2
35 33 31 31 30 31 31 30 29 28 28 28 28 30 32 34 34 35 35 35 35 34 36 36 33 30 27 24 22 20 22 25 28 30 29 27 26 25 23 22 21 19 17 14 11 10 9 10 12 12 11 10 9 8 7 7 5 4 3 4 4 4 2
40 37 35 34 33 33 34 33 32 31 30 30 30 30 32 33 35 36 37 38 38 36 36 36 34 31 28 25 23 22 23 25 27 30 31 28 28 27 26 25 23 21 19 16 12 10 10 10 12 12 11 9 8 8 8 7 7 6 5 5 5 4 3
43 40 39 37 35 35 35 34 34 33 33 33 32 32 33 34 36 37 38 39 40 39 37 37 37 34 30 27 26 24 24 26 27 30 31 30 29 29 28 27 25 22 21 18 15 12 12 11 12 13 12 9 7 8 8 8 8 7 6 6 5 5 4
44 42 41 40 38 36 34 34 35 34 34 35 35 34 35 36 37 38 38 39 41 41 39 39 40 39 36 33 30 27 25 26 28 30 31 32 31 30 30 28 26 24 22 20 18 14 13 12 13 13 12 8 8 9 9 9 8 8 7 7 6 5 4
45 43 42 41 40 38 36 35 34 33 34 35 36 36 35 36 38 39 40 39 41 42 40 40 41 41 40 37 34 30 27 27 29 30 31 32 32 31 31 30 28 27 24 21 20 17 14 13 13 14 13 9 9 10 10 10 9 8 7 7 6 5 5
45 43 42 41 41 40 38 37 35 34 34 34 34 34 34 35 38 40 41 40 41 43 43 41 40 41 41 39 37 33 29 28 29 30 31 32 33 33 32 32 30 28 26 23 21 19 16 15 14 15 15 11 11 10 10 10 9 9 8 7 6 6 5
46 45 44 42 42 41 40 39 37 35 34 33 32 32 32 34 38 41 42 42 43 43 44 43 41 41 41 40 38 35 31 28 29 30 31 32 33 34 34 33 32 30 27 24 22 20 18 16 15 16 17 14 12 11 10 10 9 9 9 8 7 6 5
47 46 46 45 43 42 41 40 39 37 35 34 33 32 32 35 39 42 44 43 43 42 42 43 42 41 42 41 39 37 34 31 29 30 32 33 34 35 35 35 34 32 29 26 24 23 20 17 16 17 18 15 12 12 12 11 10 9 9 8 7 6 5
48 47 46 45 44 42 42 41 40 39 37 37 36 34 34 35 38 41 43 43 41 40 40 43 44 44 43 43 42 40 37 35 32 31 32 34 35 36 36 36 36 34 31 28 25 24 22 19 17 19 19 15 13 13 12 11 11 10 9 9 8 7 7
50 48 47 45 44 43 42 41 41 40 39 40 40 37 35 35 37 39 41 42 41 41 42 43 44 46 46 45 45 43 40 37 36 34 33 35 36 37 38 38 37 35 32 29 26 24 23 21 19 19 19 17 16 15 13 11 11 11 10 10 10 9 8
52 51 49 47 46 45 44 42 41 40 41 42 42 40 37 36 37 39 40 41 41 42 43 43 44 46 47 48 48 46 42 40 39 37 35 35 37 38 39 39 38 36 33 31 28 26 25 22 19 20 20 18 17 17 15 13 12 12 12 11 10 10 10
56 54 53 51 49 48 46 45 43 42 42 44 44 42 39 36 38 40 40 40 40 42 45 44 44 45 46 48 50 48 45 42 41 40 36 36 38 39 40 40 39 36 34 32 30 28 26 23 20 21 21 20 18 18 17 15 14 13 13 13 12 11 11
58 58 57 55 53 51 49 48 46 44 44 45 46 46 42 38 37 40 41 41 40 42 45 45 45 45 45 47 51 50 47 44 43 42 38 38 39 40 41 41 40 38 36 34 32 29 27 24 22 22 22 21 19 18 17 17 16 15 15 15 14 13 12
60 59 59 58 57 54 52 50 49 47 46 47 48 48 45 40 37 38 41 43 42 41 43 44 45 46 46 47 50 52 50 47 45 43 40 40 40 41 42 42 41 40 38 36 33 30 29 25 23 23 23 22 20 17 17 18 17 15 16 17 17 15 13
60 60 59 59 59 58 55 53 51 49 48 49 51 51 48 43 39 37 40 44 45 43 42 43 45 47 47 48 50 52 51 48 46 44 42 41 41 41 43 44 43 42 40 38 35 32 30 27 25 25 24 22 20 18 18 18 17 16 16 17 17 17 15
58 59 59 59 59 59 58 55 53 52 51 52 54 53 49 45 40 37 38 43 47 46 43 43 45 47 49 49 49 50 50 49 47 45 43 41 42 42 43 45 45 44 42 40 37 34 32 29 27 26 25 22 21 20 19 19 17 16 16 16 17 17 16
57 58 59 59 58 58 59 57 56 55 54 54 55 53 48 45 41 39 38 41 46 48 47 45 44 46 49 49 49 49 50 50 48 46 44 43 43 44 44 46 47 46 45 42 39 36 33 31 28 27 26 23 21 20 20 19 17 16 16 16 15 14 15
55 58 57 57 57 57 58 58 57 57 56 55 54 52 49 46 43 40 40 40 44 47 47 46 46 46 47 47 47 48 48 49 48 47 46 45 45 45 45 47 48 48 47 44 40 38 35 33 30 29 27 25 23 22 21 19 17 16 16 16 15 13 13
52 57 58 56 55 55 58 58 57 57 57 56 55 52 51 48 44 41 40 41 43 46 46 47 47 47 48 48 48 48 48 48 46 45 46 47 47 46 46 48 49 49 48 45 42 40 38 35 33 31 29 27 25 25 23 21 19 18 17 16 16 15 13
48 54 58 56 53 53 56 57 56 56 58 58 56 53 52 50 45 41 41 41 42 46 47 47 46 47 49 50 51 49 49 49 46 44 46 48 48 48 48 49 50 50 49 47 44 42 40 38 35 33 32 30 28 28 26 23 21 19 18 17 17 16 15
45 50 56 57 54 52 54 56 56 56 57 58 57 53 52 51 45 39 40 41 41 45 48 48 47 46 46 48 49 47 47 50 48 44 45 48 49 49 49 49 50 51 50 49 46 44 42 40 38 35 34 32 30 30 28 25 22 20 19 19 18 18 18
45 47 52 56 54 52 52 55 56 56 56 57 57 54 53 53 45 38 39 40 41 44 48 49 49 47 46 46 47 46 46 50 49 46 44 44 45 47 49 50 50 51 51 50 48 46 44 42 39 37 35 34 33 32 30 28 25 23 21 20 19 19 20
44 45 49 53 53 51 51 54 56 57 56 56 56 53 52 53 46 39 39 40 40 44 48 49 49 49 47 46 47 46 44 43 43 42 42 42 40 42 46 50 51 51 52 52 50 48 46 44 42 39 37 36 35 34 33 31 28 26 24 23 21 22 23
44 44 47 51 51 50 50 52 55 58 56 56 54 52 53 53 45 38 38 39 40 44 46 46 46 47 47 46 46 46 44 43 40 38 40 43 41 39 42 47 51 52 52 52 52 50 48 46 44 42 40 38 37 36 35 34 32 30 27 26 26 26 26
43 43 46 50 50 49 50 50 53 55 55 55 53 52 53 50 42 37 37 38 40 42 43 42 42 43 45 45 44 44 44 47 45 40 40 43 43 40 41 44 50 52 52 53 52 50 49 47 46 44 42 40 39 38 36 36 35 34 31 30 30 30 30
42 42 45 48 49 49 50 49 50 50 51 52 52 51 49 44 39 37 36 36 39 40 39 40 38 38 40 42 44 43 43 46 48 45 43 43 43 42 40 42 48 51 51 52 52 50 48 47 46 45 44 42 41 39 38 37 37 37 36 35 34 33 33
40 42 44 45 47 49 48 47 46 44 45 49 51 49 45 40 37 36 33 34 38 39 38 37 36 36 36 37 41 44 44 45 49 51 49 46 44 44 42 41 44 47 49 50 51 49 47 46 45 44 44 43 42 41 39 38 37 37 38 38 37 36 35
38 41 43 44 46 47 46 44 43 43 44 47 47 44 41 38 37 35 32 32 35 35 36 36 35 35 33 33 36 40 43 45 48 52 54 52 49 47 43 40 40 43 46 48 50 49 46 44 44 43 43 42 41 41 40 38 37 38 39 40 40 39 38
35 40 42 43 43 43 41 41 43 44 43 42 41 40 39 38 36 35 33 32 32 32 32 32 33 33 31 31 32 35 38 41 46 50 53 55 57 54 45 38 38 43 47 47 48 48 46 44 44 43 42 42 41 41 40 39 39 39 39 40 41 41 40
35 39 41 41 42 41 40 40 43 43 41 39 40 40 39 38 36 35 33 32 31 31 29 28 29 30 30 31 31 32 32 34 40 47 50 52 57 56 48 41 40 44 47 49 49 48 45 44 44 43 43 42 42 41 40 40 41 40 40 40 41 42 43
34 38 39 40 41 42 42 41 43 43 40 38 40 41 40 39 38 37 35 34 33 32 29 27 27 28 29 31 32 32 31 30 33 40 46 50 52 52 50 48 48 47 48 49 51 51 48 45 45 45 44 43 43 41 39 39 42 42 42 42 42 43 44
31 35 37 38 39 41 42 42 44 43 39 36 38 40 41 41 40 38 36 36 35 32 28 26 26 28 30 32 33 33 34 33 30 31 37 44 49 50 50 51 53 53 52 51 51 52 51 48 46 47 47 47 46 42 37 38 42 43 43 44 44 45 46
20 24 26 26 27 30 33 36 39 41 40 38 39 42 43 42 41 39 37 36 35 31 28 25 24 26 29 32 34 34 35 36 33 29 29 34 41 47 49 50 52 54 55 55 54 54 52 50 48 48 50 51 50 44 40 41 43 43 43 45 46 46 46
7 12 16 18 21 23 27 30 33 36 39 40 42 47 49 46 43 40 38 37 35 31 29 26 24 24 27 31 34 36 36 36 35 33 31 30 32 38 44 47 50 53 55 57 57 56 54 51 50 50 51 53 51 47 44 44 45 44 43 45 46 47 47
4 5 8 11 16 19 22 26 29 32 35 36 40 46 48 47 47 45 42 40 37 33 30 28 25 24 26 29 33 36 38 37 36 35 35 33 30 32 37 43 47 49 50 51 53 56 56 55 53 53 53 53 52 49 48 48 47 46 46 46 47 48 48
3 1 3 5 8 12 16 21 26 30 33 32 31 35 40 42 43 44 43 41 39 34 31 29 26 25 27 29 32 35 37 38 38 37 38 36 33 31 33 38 44 47 47 45 44 47 52 55 57 57 55 55 54 54 54 53 51 49 49 50 50 50 49

ECMWFFLT1_700_spd_228.txt.gz
Wind_Speed
14 15 17 18 16 17 20 23 24 25 27 29 29 30 30 30 33 37 34 30 31 31 29 27 26 26 27 25 24 24 24 24 25 24 22 20 22 23 21 19 19 18 18 15 13 11 10 10 10 9 9 9 7 5 6 6 5 4 5 6 6 6 5
18 19 19 20 20 19 20 23 25 25 26 28 29 29 30 30 33 37 36 31 31 33 30 28 29 28 28 28 26 25 24 23 24 24 22 19 21 23 23 21 20 20 20 19 16 14 12 11 11 9 8 9 8 7 7 6 5 5 5 6 6 6 5
25 23 22 23 23 23 24 25 26 25 25 27 28 30 31 32 34 36 36 30 29 32 32 29 29 30 29 29 28 26 25 24 24 24 22 19 20 24 25 24 22 21 21 20 17 15 13 11 12 11 10 9 10 10 8 6 5 6 6 6 7 7 6
30 27 27 26 25 26 29 30 30 29 28 29 29 31 32 33 34 32 29 26 25 28 30 30 31 30 29 30 31 30 27 26 24 22 21 20 21 23 25 25 24 23 21 20 18 16 13 11 11 13 13 11 12 11 8 6 6 6 6 7 7 8 6
34 31 31 29 28 30 32 32 34 34 32 32 32 32 32 32 33 31 28 25 24 25 26 28 30 30 29 29 31 32 30 27 25 23 21 20 20 22 25 26 26 25 23 20 20 18 15 12 12 13 14 14 13 10 7 7 7 6 6 7 8 8 7
40 34 34 33 31 35 37 37 36 35 33 31 32 32 32 34 36 33 29 25 23 24 25 25 27 29 30 29 30 32 32 29 26 24 22 20 20 21 23 25 26 27 25 22 21 19 17 14 13 13 13 15 14 9 7 8 8 7 6 7 9 9 8
46 40 39 38 35 35 39 41 39 37 35 31 31 34 33 35 36 29 25 24 24 25 25 25 26 28 30 30 30 30 31 31 28 26 24 22 22 21 22 24 26 27 26 23 22 21 19 16 15 13 12 15 17 12 9 9 10 9 9 9 10 10 9
49 48 47 44 39 36 37 41 40 38 37 33 33 36 34 32 28 23 23 24 23 24 25 26 27 28 30 31 31 30 30 30 30 29 27 26 25 23 22 23 24 26 26 25 24 22 21 18 16 15 13 15 18 16 12 12 11 10 9 10 11 10 10
47 51 50 47 44 42 39 39 39 37 36 35 34 36 35 34 28 24 26 26 24 23 25 26 28 29 31 32 33 33 32 32 31 31 30 29 28 26 24 23 23 24 26 27 26 24 22 20 18 17 16 16 18 18 15 14 13 11 10 11 11 11 11
46 48 49 48 47 46 44 43 42 40 39 37 36 38 40 40 36 32 33 30 28 27 27 28 29 31 32 33 34 35 35 35 33 32 31 31 31 29 27 25 23 23 25 27 27 26 24 22 20 20 18 16 17 19 18 15 13 12 12 11 11 12 12
48 48 49 49 48 48 47 46 45 44 42 39 38 40 42 44 41 39 38 35 33 31 29 29 30 31 32 33 34 35 36 37 36 35 33 33 33 33 30 28 26 25 25 27 28 28 26 24 22 21 20 18 18 19 19 18 15 14 15 13 12 13 13
51 51 50 49 49 48 48 48 46 46 44 41 40 41 42 43 43 42 41 40 37 34 31 31 31 32 33 33 34 36 37 38 37 37 36 35 35 36 34 31 30 28 27 28 29 29 28 26 24 23 22 21 20 19 18 20 18 16 16 16 14 15 15
52 53 53 52 51 50 48 48 47 47 45 43 42 42 42 41 42 43 43 41 39 36 34 33 33 34 34 34 35 35 36 38 38 38 38 38 38 39 38 35 33 32 30 30 31 30 30 29 27 25 24 23 23 21 19 20 20 18 19 18 15 17 17
53 54 55 55 54 53 51 49 48 47 47 45 44 44 43 42 42 43 42 41 40 37 35 34 35 36 35 35 35 35 34 36 39 39 39 39 40 40 41 39 37 35 34 33 33 32 31 30 29 28 27 26 25 23 21 21 21 20 21 20 17 19 19
47 52 54 56 57 57 55 53 51 50 49 48 47 46 45 43 42 42 42 42 40 38 36 36 37 38 37 36 36 35 34 34 37 40 40 40 41 41 42 41 40 38 38 36 34 34 32 32 31 30 28 28 27 26 24 22 22 22 23 22 20 21 21
37 43 48 53 56 58 59 58 55 54 52 50 49 48 47 45 44 43 43 43 42 39 38 38 39 39 38 37 37 35 34 33 35 38 40 39 39 41 41 41 40 40 40 39 36 34 34 33 33 31 30 29 28 28 26 24 24 23 23 23 23 24 23
33 36 40 45 50 54 58 60 59 58 56 54 52 51 50 49 48 46 44 44 43 42 41 40 40 40 38 38 39 36 34 33 33 36 38 39 38 40 41 41 41 41 41 41 38 35 35 35 34 32 31 30 30 29 28 27 25 24 25 25 24 25 26
33 35 36 39 42 46 50 55 59 60 59 58 56 54 53 53 52 51 48 46 45 43 42 41 41 40 38 37 38 36 33 33 34 35 36 38 38 39 40 41 41 41 42 42 41 39 36 35 34 33 33 32 31 31 30 29 28 26 27 27 25 25 26
34 36 38 39 40 42 44 47 52 56 59 60 59 58 56 55 55 54 52 50 47 43 40 40 42 42 40 38 37 35 33 33 34 35 35 37 38 39 40 41 41 42 43 43 43 42 40 37 36 35 34 34 33 33 32 31 30 29 29 29 27 26 27
32 35 38 41 42 43 43 45 47 49 53 57 59 61 60 58 57 56 54 53 51 46 40 40 43 43 42 40 38 36 35 35 35 36 35 36 38 39 40 42 42 42 43 44 44 44 43 40 39 38 36 34 34 35 34 33 32 31 30 31 30 28 27
30 31 34 38 43 45 45 46 46 47 48 51 55 59 61 61 59 58 57 55 54 51 45 43 44 45 44 42 40 38 37 37 37 37 36 36 38 40 41 42 43 43 43 44 46 47 46 44 42 41 39 37 36 36 36 35 35 33 32 32 32 30 28
29 30 30 32 38 43 46 47 48 48 48 48 50 54 58 61 62 60 59 58 56 54 52 48 46 47 47 46 43 40 40 38 37 36 37 37 38 40 40 41 42 44 44 43 44 46 47 46 45 44 42 40 39 39 37 37 37 36 34 34 34 33 30
28 28 29 30 31 36 42 47 50 50 49 49 49 50 53 58 62 62 61 60 58 56 55 53 51 49 48 47 46 44 43 41 39 37 37 38 39 39 39 40 41 43 44 45 44 43 43 44 46 46 45 43 41 40 38 37 38 37 36 36 36 35 33
27 27 28 29 29 31 35 41 47 51 52 50 49 49 50 53 58 62 62 63 61 58 57 56 54 51 48 47 49 49 46 43 41 41 39 38 38 38 39 40 40 40 43 46 46 45 43 42 43 45 47 46 44 42 39 38 38 39 38 37 36 36 35
27 27 27 27 28 29 31 35 41 47 52 52 50 49 49 50 53 57 61 64 63 61 59 58 57 56 53 49 50 51 50 46 44 44 41 38 37 37 38 40 39 39 42 44 46 46 44 43 44 44 45 47 48 47 43 40 40 40 39 38 37 37 36
27 27 27 26 26 28 30 33 36 40 47 52 51 49 49 50 50 52 57 62 63 63 63 60 59 59 57 51 49 51 51 49 47 45 43 42 40 39 38 40 40 40 41 42 44 46 45 45 46 45 45 46 49 50 47 45 43 42 40 38 38 38 37
26 26 26 26 26 27 28 29 32 35 40 46 49 49 49 49 48 49 53 59 61 62 64 64 62 60 56 51 49 50 51 50 48 46 45 43 42 40 39 39 40 41 41 41 43 44 45 46 46 46 46 46 49 50 50 49 48 45 42 40 39 39 38
24 23 24 25 26 27 27 26 27 30 33 38 43 46 47 47 48 49 52 56 58 59 62 64 62 60 58 55 50 47 47 48 48 47 46 44 42 41 40 40 41 41 41 41 42 43 44 44 44 44 45 46 49 53 52 50 47 45 43 41 39 39 39
21 21 22 24 24 25 25 24 23 23 26 30 35 40 44 46 46 47 50 53 56 59 60 61 60 58 57 56 53 47 44 45 47 47 47 45 43 41 41 41 41 42 42 42 41 42 42 41 41 42 44 47 51 55 55 50 46 45 45 43 42 41 40
18 19 20 22 22 21 20 21 20 21 23 26 30 35 41 43 42 42 45 48 51 56 59 59 59 57 55 54 54 51 46 46 48 49 47 45 43 41 41 40 40 41 42 42 41 41 41 42 43 44 46 48 51 54 55 49 44 46 49 47 44 42 43
16 16 17 17 17 16 16 16 18 20 21 24 27 33 38 40 39 39 42 44 47 52 56 55 53 53 52 50 49 50 48 48 50 50 47 45 43 41 41 39 37 38 41 42 42 41 41 42 45 46 47 48 49 53 53 47 41 43 48 49 47 45 45
15 15 15 14 14 13 14 14 16 17 19 21 25 29 33 35 36 37 39 41 44 47 51 52 50 50 49 46 45 47 49 50 52 50 46 44 44 43 42 40 37 37 39 41 41 41 41 42 44 46 47 48 49 51 50 44 39 40 44 47 49 49 49
14 14 15 13 13 13 13 12 12 14 17 20 23 25 29 32 33 34 36 39 43 46 49 49 48 48 48 45 44 46 48 50 52 49 46 45 46 45 44 41 38 37 38 39 41 42 42 43 44 45 46 48 49 49 47 43 41 41 43 45 48 50 52
14 13 13 13 14 13 9 7 8 11 15 19 22 23 24 26 26 29 33 35 39 42 44 43 43 43 45 45 45 46 47 49 49 47 46 48 48 46 43 41 39 39 38 39 40 42 44 46 46 45 45 46 45 43 43 44 44 44 46 50 52 52 52
17 16 12 9 9 9 6 5 7 9 9 12 16 18 19 21 21 23 25 27 31 34 35 35 36 38 40 43 45 45 47 49 47 44 44 46 46 44 42 41 40 40 39 39 40 41 44 47 49 48 47 46 42 39 40 43 45 46 48 51 55 57 57
18 19 17 12 11 10 7 5 4 5 7 8 9 11 13 16 17 18 19 20 23 26 28 31 34 36 37 39 41 43 45 46 44 40 38 38 38 39 39 40 40 40 40 40 40 42 44 46 50 51 49 46 44 41 41 43 45 47 49 49 53 58 61
17 18 18 15 14 14 10 8 7 5 3 2 4 7 8 10 11 12 14 17 19 22 26 29 32 35 37 38 39 41 43 43 42 41 37 35 35 37 38 39 40 41 42 42 42 44 45 46 48 50 51 50 47 45 45 46 47 49 51 51 52 55 59

ECMWFFLT1_700_spd_234.txt.gz
Wind_Speed
18 22 26 31 32 31 32 34 34 33 33 33 32 30 29 27 27 28 29 30 29 27 25 22 21 23 27 29 30 31 31 31 31 29 27 27 28 26 24 23 21 20 17 16 15 13 10 8 7 5 5 6 6 6 7 9 9 6 4 3 1 1 2
14 18 22 28 32 32 32 32 33 33 33 33 33 32 30 29 28 29 31 32 32 31 29 25 22 22 25 28 31 32 32 33 32 31 29 29 29 27 26 25 23 21 19 19 19 17 14 12 9 8 7 6 6 7 7 8 9 8 5 4 2 2 2
12 14 18 24 29 31 31 30 29 30 30 30 30 29 29 29 29 30 31 32 32 32 29 26 23 22 23 26 30 32 32 32 32 31 30 30 30 28 28 27 25 23 21 20 21 20 18 16 13 11 9 7 7 8 8 8 8 8 7 5 3 3 3
15 15 16 20 25 30 32 29 28 29 30 29 29 28 28 29 29 30 31 32 32 30 28 25 24 24 24 24 27 30 32 32 31 31 31 31 31 30 30 29 28 25 24 23 21 21 21 20 17 15 13 11 10 9 8 7 7 7 7 6 4 3 3
19 19 19 20 21 26 31 30 28 28 30 30 30 30 30 30 30 30 31 31 29 27 25 25 26 27 26 24 24 28 30 30 30 31 31 31 32 32 31 31 29 27 26 25 23 22 22 21 21 19 16 15 13 10 9 9 7 6 7 7 6 4 3
23 22 22 23 23 24 29 32 30 28 29 30 30 29 28 27 27 27 28 29 28 25 25 26 27 28 28 25 24 26 28 29 29 30 30 30 32 33 32 32 31 29 27 26 25 24 22 22 22 21 19 17 14 12 11 10 9 8 7 8 8 6 4
26 25 25 25 26 26 28 32 33 31 29 28 27 28 28 28 27 25 25 27 28 27 26 27 28 28 29 28 26 27 28 28 29 30 29 29 30 32 32 32 31 30 28 26 26 26 24 23 23 22 20 18 16 15 13 11 11 9 8 8 9 9 6
28 29 28 28 29 28 28 31 34 35 32 28 25 25 27 29 29 27 25 25 26 26 26 26 27 28 30 30 28 28 29 29 30 31 30 29 30 31 32 32 32 31 28 26 26 28 26 25 25 23 22 20 19 17 14 13 13 9 8 9 9 9 7
31 30 31 31 32 31 29 30 34 37 35 31 27 25 26 28 29 29 26 25 24 25 25 26 28 29 31 32 30 30 30 30 31 32 31 30 30 31 32 33 32 31 29 26 26 28 28 27 27 26 24 23 22 21 18 16 14 10 9 10 9 9 8
35 34 33 33 34 35 32 30 32 37 36 32 28 26 26 28 30 30 28 26 26 27 27 28 30 30 30 30 30 30 29 28 30 31 31 31 31 31 32 34 33 31 28 27 26 28 29 29 30 29 27 26 25 25 22 19 16 12 11 11 9 8 9
37 38 37 35 35 36 36 34 32 35 37 33 28 28 27 28 30 32 32 30 28 29 30 32 32 31 30 29 29 29 27 26 28 29 30 32 32 32 33 35 35 32 29 28 27 28 29 31 32 32 31 29 28 28 25 22 19 15 14 13 9 8 10
36 38 39 39 38 37 38 38 36 35 37 36 33 32 31 29 30 32 33 33 31 31 32 33 33 32 31 29 28 28 27 26 26 26 27 29 32 33 34 36 37 34 30 29 28 28 29 31 33 33 33 32 31 30 27 25 23 18 16 14 11 10 11
34 37 39 40 41 39 38 39 40 39 39 40 39 39 37 34 32 32 33 33 32 32 32 32 32 31 30 29 29 29 27 26 26 25 25 26 29 32 34 36 38 37 33 31 30 29 30 31 33 33 33 33 32 31 29 29 26 21 18 17 14 13 13
29 33 37 39 41 42 41 40 41 42 43 43 43 44 42 39 36 35 34 33 32 32 32 31 31 30 28 28 30 31 30 29 28 28 27 26 26 29 31 34 37 38 36 34 33 32 31 32 33 34 34 34 34 32 31 30 28 23 20 20 18 16 15
23 26 31 35 38 40 42 42 42 43 44 46 47 47 47 44 41 39 37 36 34 34 34 33 33 32 29 28 30 33 34 33 32 32 31 29 26 26 29 32 35 37 37 36 35 34 34 33 34 34 35 35 34 33 31 31 30 27 24 22 21 19 18
20 22 25 29 33 37 40 42 44 44 44 45 47 49 49 48 46 44 41 39 37 37 37 38 38 39 37 34 32 33 35 35 35 34 33 33 30 28 27 29 31 33 34 36 36 36 36 36 36 36 36 36 35 33 31 31 31 29 27 25 24 24 22
19 20 22 24 28 31 35 39 42 45 46 46 47 47 48 50 50 49 46 44 42 41 41 41 43 46 46 44 40 38 39 40 40 39 37 36 36 33 29 28 27 29 31 34 35 36 38 39 39 39 38 37 36 34 33 32 31 30 29 28 28 27 26
17 19 20 22 24 26 30 33 37 41 45 47 49 49 48 49 52 53 51 49 47 47 46 46 46 47 50 51 49 47 46 47 48 46 41 39 40 39 35 32 29 28 30 33 34 35 37 39 41 41 40 39 38 37 35 34 33 32 32 32 31 30 30
16 18 20 21 23 24 26 29 32 36 40 45 48 50 51 50 52 54 54 53 51 51 51 50 49 48 49 51 52 51 51 51 52 51 47 43 42 41 39 37 33 30 30 32 33 34 36 38 41 42 42 42 41 39 39 37 36 35 34 34 34 34 33
16 17 19 21 23 24 26 27 29 31 35 40 45 48 51 52 53 56 57 56 55 53 53 53 52 51 50 50 51 51 51 51 50 49 48 46 44 43 41 40 39 35 33 33 33 33 34 37 40 42 43 43 42 43 42 41 39 38 37 36 36 37 37
16 17 18 20 22 24 26 27 29 30 32 36 41 44 48 51 53 56 59 60 59 57 56 54 53 54 54 53 51 51 50 49 47 44 43 44 46 46 44 42 42 40 36 35 34 33 34 35 38 42 43 42 43 44 45 44 43 41 40 39 38 38 39
15 16 17 19 21 23 25 27 28 30 31 34 37 40 44 48 52 56 60 62 62 61 60 59 56 55 56 55 53 52 51 49 48 45 42 43 46 49 47 42 42 41 39 37 35 34 34 35 37 40 42 42 42 43 45 46 46 45 43 42 40 39 40
14 15 16 18 19 21 24 26 28 30 31 32 34 37 40 44 48 52 57 61 63 64 63 62 60 58 59 58 56 55 54 52 50 48 46 44 45 47 47 44 41 41 41 39 36 34 35 36 37 39 40 41 41 41 43 44 46 47 46 45 43 41 41
14 16 17 18 18 20 21 23 26 28 30 32 34 36 38 41 44 47 51 55 59 62 63 62 62 60 60 60 58 57 56 55 53 51 49 48 46 44 45 45 43 41 41 41 38 35 35 36 37 38 40 40 40 40 40 41 44 46 47 47 45 43 43
13 14 16 16 17 18 19 20 22 25 27 30 33 36 38 40 42 44 47 50 53 56 58 59 60 60 61 60 59 58 57 56 55 53 51 51 49 46 44 44 44 42 42 42 40 37 36 37 37 37 38 39 40 39 38 40 41 43 44 45 46 46 45
10 11 13 13 13 14 16 18 20 21 23 26 29 32 35 38 41 43 45 47 49 52 54 55 56 57 59 60 59 58 57 57 56 55 53 52 52 51 48 47 46 43 43 44 42 39 37 37 36 36 37 38 39 39 39 39 40 41 42 43 44 46 46
11 11 11 11 11 10 11 13 16 18 21 23 25 27 29 33 36 39 42 44 46 48 51 53 54 55 56 58 58 57 58 58 58 58 57 55 54 54 52 50 49 46 43 43 43 41 38 36 35 34 35 37 38 39 39 40 41 42 42 42 43 44 44
12 13 13 11 10 9 9 10 12 15 17 19 22 24 25 28 31 34 37 40 43 45 47 49 52 54 56 56 56 57 58 59 59 59 59 58 57 57 54 51 51 49 45 43 43 42 39 36 33 33 34 36 37 38 39 40 41 42 42 43 43 43 41
11 12 14 13 12 11 11 11 11 13 14 15 17 19 22 24 27 29 33 36 39 41 43 44 47 51 54 56 57 57 57 58 59 60 60 59 58 58 56 54 54 52 48 43 41 41 41 38 35 34 34 35 35 36 38 38 39 40 41 44 45 43 40
9 11 13 13 13 12 11 11 12 12 13 14 15 16 18 20 22 24 27 30 34 37 39 40 42 45 49 53 56 57 57 57 58 59 61 61 60 57 55 55 56 54 50 46 42 41 42 42 40 37 36 35 35 36 37 37 37 38 40 43 44 43 42
8 10 11 12 13 12 11 11 11 12 12 12 14 15 17 18 19 20 21 23 26 30 33 35 37 41 44 48 52 55 56 56 56 57 59 60 61 59 56 55 54 52 51 49 46 43 43 44 44 42 39 38 37 38 36 35 36 37 39 41 42 43 43
7 9 11 12 12 12 12 11 12 12 12 12 12 14 16 17 17 19 20 20 22 24 27 29 31 35 39 43 48 52 54 55 55 55 56 58 60 62 60 56 53 52 51 51 51 48 44 43 46 46 43 41 41 40 36 34 35 37 38 40 42 43 44
7 8 10 11 11 11 11 11 11 12 12 13 12 13 14 15 16 17 20 21 21 22 23 24 25 29 33 37 42 48 51 53 52 52 53 55 57 61 62 59 56 54 52 51 51 50 45 42 45 47 47 46 46 43 38 35 36 37 38 40 42 44 45
7 8 9 10 10 10 10 10 10 10 11 11 12 12 12 13 15 16 19 21 22 23 24 23 23 26 29 32 37 42 47 49 49 49 49 50 52 54 57 58 57 56 53 49 48 47 44 42 44 47 49 51 49 44 40 39 38 38 39 41 43 45 47
8 9 9 10 10 10 10 10 10 10 11 10 10 10 10 11 12 14 16 19 22 24 25 25 23 24 27 30 34 39 43 46 46 46 46 47 48 49 50 51 53 54 54 51 48 44 41 40 42 44 48 50 48 44 42 42 41 40 40 42 43 45 47
10 11 11 11 11 11 11 10 10 11 12 12 11 11 10 10 10 12 13 15 17 20 23 25 25 24 26 29 33 37 40 42 43 44 45 45 46 46 46 46 48 50 53 54 52 48 45 43 43 43 44 49 50 46 44 45 45 44 43 44 44 45 46
11 12 12 11 11 11 12 12 11 11 11 12 12 12 11 11 11 11 11 12 14 15 17 20 24 24 25 28 32 36 38 40 41 41 42 43 43 44 44 45 46 47 49 51 53 52 51 49 48 45 45 48 52 51 48 48 48 47 46 45 45 45 46